• In Hungary
  • List of Countries
  • For 7 days
  • Water Temperature
  • Satellite Maps
  • Weather Map
  • News
  • Weather Widgets
  • user-avatar
    Login

    Hourly Weather Hruschevskie Dvoriki

    Today, 22 October, Monday

    Time Temperature Precipitation Wind Pressure Humidity
    00:00 +4°C° 0 mm 2 mps 747 mmHg 84%
    01:00 +3°C° 0 mm 2 mps 747 mmHg 84%
    02:00 +3°C° 0 mm 2 mps 747 mmHg 87%
    03:00 +3°C° 0 mm 2 mps 747 mmHg 88%
    04:00 +2°C° 0 mm 2 mps 746 mmHg 88%
    05:00 +2°C° 0 mm 2 mps 746 mmHg 89%
    06:00 +3°C° 0 mm 2 mps 746 mmHg 86%
    07:00 +3°C° 0 mm 2 mps 746 mmHg 84%
    08:00 +4°C° 0 mm 2 mps 747 mmHg 80%
    09:00 +5°C° 0 mm 2 mps 746 mmHg 74%
    10:00 +6°C° 0 mm 2 mps 746 mmHg 68%
    11:00 +8°C° 0 mm 2 mps 746 mmHg 63%
    12:00 +9°C° 0 mm 1 mps 745 mmHg 61%
    13:00 +10°C° 0 mm 1 mps 745 mmHg 59%
    14:00 +10°C° 0 mm 1 mps 744 mmHg 57%
    15:00 +9°C° 0 mm 1 mps 744 mmHg 60%
    16:00 +8°C° 0 mm 1 mps 743 mmHg 64%
    17:00 +7°C° 0 mm 1 mps 743 mmHg 68%
    18:00 +7°C° 0 mm 1 mps 742 mmHg 70%
    19:00 +7°C° 0 mm 1 mps 742 mmHg 71%
    20:00 +6°C° 0 mm 1 mps 742 mmHg 73%
    21:00 +6°C° 0 mm 1 mps 741 mmHg 73%
    22:00 +6°C° 0 mm 1 mps 741 mmHg 74%
    23:00 +5°C° 0 mm 2 mps 740 mmHg 75%

    Tomorrow, 23 October, Tuesday

    Time Temperature Precipitation Wind Pressure Humidity
    00:00 +4°C° 0 mm 2 mps 740 mmHg 76%
    01:00 +4°C° 0 mm 2 mps 739 mmHg 76%
    02:00 +4°C° 0 mm 2 mps 739 mmHg 77%
    03:00 +3°C° 0 mm 2 mps 738 mmHg 78%
    04:00 +3°C° 0 mm 2 mps 737 mmHg 78%
    05:00 +2°C° 0 mm 3 mps 737 mmHg 78%
    06:00 +2°C° 0 mm 3 mps 736 mmHg 76%
    07:00 +3°C° 0 mm 4 mps 736 mmHg 75%
    08:00 +3°C° 0 mm 4 mps 736 mmHg 73%
    09:00 +3°C° 0 mm 5 mps 736 mmHg 70%
    10:00 +6°C° 0 mm 5 mps 735 mmHg 67%
    11:00 +7°C° 0 mm 5 mps 735 mmHg 64%
    12:00 +7°C° 0 mm 5 mps 734 mmHg 65%
    13:00 +7°C° 0 mm 5 mps 734 mmHg 66%
    14:00 +7°C° 0 mm 6 mps 733 mmHg 66%
    15:00 +6°C° 0.1 mm 5 mps 733 mmHg 70%
    16:00 +6°C° 0.1 mm 5 mps 732 mmHg 75%
    17:00 +5°C° 0.1 mm 4 mps 732 mmHg 79%
    18:00 +5°C° 0.1 mm 4 mps 731 mmHg 80%
    19:00 +5°C° 0.1 mm 4 mps 731 mmHg 82%
    20:00 +5°C° 0.1 mm 4 mps 730 mmHg 83%
    21:00 +5°C° 0 mm 4 mps 730 mmHg 83%
    22:00 +5°C° 0 mm 4 mps 729 mmHg 83%
    23:00 +5°C° 0 mm 4 mps 728 mmHg 83%

    Day after tomorrow, 24 October, Wednesday

    Time Temperature Precipitation Wind Pressure Humidity
    00:00 +3°C° 0.1 mm 5 mps 727 mmHg 81%
    01:00 +3°C° 0.1 mm 5 mps 726 mmHg 79%
    02:00 +3°C° 0.1 mm 5 mps 726 mmHg 77%
    03:00 +3°C° 0.1 mm 5 mps 725 mmHg 77%
    04:00 +3°C° 0.1 mm 5 mps 724 mmHg 77%
    05:00 +3°C° 0.1 mm 5 mps 723 mmHg 77%
    06:00 +3°C° 0.2 mm 6 mps 722 mmHg 78%
    07:00 +3°C° 0.2 mm 7 mps 721 mmHg 78%
    08:00 +4°C° 0.2 mm 7 mps 721 mmHg 79%
    09:00 +4°C° 0.3 mm 7 mps 720 mmHg 79%
    10:00 +5°C° 0.3 mm 7 mps 720 mmHg 80%
    11:00 +5°C° 0.3 mm 7 mps 719 mmHg 81%
    12:00 +5°C° 0.3 mm 7 mps 719 mmHg 81%
    13:00 +7°C° 0.3 mm 6 mps 719 mmHg 80%
    14:00 +7°C° 0.3 mm 6 mps 718 mmHg 80%
    15:00 +7°C° 0.9 mm 5 mps 718 mmHg 83%
    16:00 +6°C° 0.9 mm 5 mps 718 mmHg 85%
    17:00 +6°C° 0.9 mm 5 mps 717 mmHg 87%
    18:00 +6°C° 0.6 mm 4 mps 717 mmHg 88%
    19:00 +6°C° 0.6 mm 4 mps 717 mmHg 89%
    20:00 +6°C° 0.6 mm 4 mps 717 mmHg 90%
    21:00 +7°C° 0.1 mm 3 mps 716 mmHg 91%
    22:00 +5°C° 0.1 mm 3 mps 716 mmHg 92%
    23:00 +6°C° 0.1 mm 2 mps 715 mmHg 93%

    25 October, Thursday

    Time Temperature Precipitation Wind Pressure Humidity
    00:00 +5°C° 1.1 mm 3 mps 715 mmHg 94%
    01:00 +5°C° 1.1 mm 4 mps 714 mmHg 94%
    02:00 +6°C° 1.1 mm 5 mps 714 mmHg 94%
    03:00 +5°C° 1.1 mm 5 mps 713 mmHg 92%
    04:00 +4°C° 1.1 mm 6 mps 712 mmHg 89%
    05:00 +4°C° 1.1 mm 7 mps 712 mmHg 86%
    06:00 +4°C° 0.4 mm 7 mps 712 mmHg 84%
    07:00 +3°C° 0.4 mm 7 mps 711 mmHg 83%
    08:00 +3°C° 0.4 mm 7 mps 711 mmHg 82%
    09:00 +3°C° 0.3 mm 6 mps 711 mmHg 82%
    10:00 +3°C° 0.3 mm 6 mps 711 mmHg 83%
    11:00 +4°C° 0.3 mm 6 mps 711 mmHg 83%
    12:00 +4°C° 0.6 mm 7 mps 712 mmHg 83%
    13:00 +2°C° 0.6 mm 8 mps 712 mmHg 82%
    14:00 +2°C° 0.6 mm 9 mps 713 mmHg 81%
    15:00 +2°C° 0.5 mm 9 mps 714 mmHg 81%
    16:00 +2°C° 0.5 mm 9 mps 715 mmHg 80%
    17:00 +1°C° 0.5 mm 9 mps 716 mmHg 79%
    18:00 +1°C° 0.4 mm 9 mps 716 mmHg 79%
    19:00 +1°C° 0.4 mm 8 mps 717 mmHg 80%
    20:00 +1°C° 0.4 mm 8 mps 718 mmHg 80%
    21:00 0°C° 0.1 mm 8 mps 719 mmHg 80%
    22:00 0°C° 0.1 mm 7 mps 719 mmHg 81%
    23:00 0°C° 0.1 mm 7 mps 720 mmHg 81%

    26 October, Friday

    Time Temperature Precipitation Wind Pressure Humidity
    00:00 0°C° 0.1 mm 7 mps 720 mmHg 82%
    01:00 0°C° 0.1 mm 7 mps 721 mmHg 82%
    02:00 0°C° 0.1 mm 7 mps 721 mmHg 83%
    03:00 -1°C° 0.3 mm 6 mps 722 mmHg 84%
    04:00 -1°C° 0.3 mm 6 mps 722 mmHg 84%
    05:00 -1°C° 0.3 mm 6 mps 723 mmHg 85%
    06:00 -1°C° 0.1 mm 6 mps 724 mmHg 84%
    07:00 -1°C° 0.1 mm 6 mps 724 mmHg 83%
    08:00 -1°C° 0.1 mm 6 mps 725 mmHg 81%
    09:00 -1°C° 0 mm 6 mps 726 mmHg 79%
    10:00 -1°C° 0 mm 6 mps 727 mmHg 77%
    11:00 -1°C° 0 mm 6 mps 727 mmHg 74%
    12:00 +1°C° 0 mm 6 mps 728 mmHg 74%
    13:00 +1°C° 0 mm 6 mps 729 mmHg 73%
    14:00 +2°C° 0 mm 6 mps 729 mmHg 72%
    15:00 +1°C° 0 mm 6 mps 730 mmHg 75%
    16:00 +1°C° 0 mm 5 mps 731 mmHg 78%
    17:00 0°C° 0 mm 5 mps 732 mmHg 81%
    18:00 0°C° 0 mm 5 mps 732 mmHg 81%
    19:00 0°C° 0 mm 5 mps 733 mmHg 81%
    20:00 0°C° 0 mm 5 mps 734 mmHg 81%
    21:00 0°C° 0 mm 4 mps 734 mmHg 80%
    22:00 0°C° 0 mm 4 mps 735 mmHg 80%
    23:00 0°C° 0 mm 4 mps 735 mmHg 80%

    27 October, Saturday

    Time Temperature Precipitation Wind Pressure Humidity
    00:00 0°C° 0 mm 4 mps 736 mmHg 82%
    01:00 0°C° 0 mm 4 mps 736 mmHg 84%
    02:00 0°C° 0 mm 4 mps 737 mmHg 86%
    03:00 -1°C° 0 mm 4 mps 737 mmHg 88%
    04:00 -1°C° 0 mm 4 mps 738 mmHg 89%
    05:00 -2°C° 0 mm 4 mps 738 mmHg 91%
    06:00 -1°C° 0 mm 4 mps 738 mmHg 90%
    07:00 -1°C° 0 mm 4 mps 739 mmHg 88%
    08:00 0°C° 0 mm 4 mps 739 mmHg 86%
    09:00 +1°C° 0 mm 5 mps 739 mmHg 82%
    10:00 +2°C° 0 mm 5 mps 739 mmHg 77%
    11:00 +3°C° 0 mm 6 mps 739 mmHg 73%
    12:00 +4°C° 0 mm 6 mps 739 mmHg 72%
    13:00 +4°C° 0 mm 6 mps 739 mmHg 71%
    14:00 +5°C° 0 mm 6 mps 739 mmHg 70%
    15:00 +5°C° 0 mm 5 mps 738 mmHg 72%
    16:00 +5°C° 0 mm 5 mps 738 mmHg 75%
    17:00 +5°C° 0 mm 5 mps 738 mmHg 78%
    18:00 +5°C° 0 mm 5 mps 738 mmHg 79%
    19:00 +3°C° 0 mm 5 mps 738 mmHg 80%
    20:00 +3°C° 0 mm 5 mps 738 mmHg 80%
    21:00 +5°C° 0 mm 5 mps 737 mmHg 83%
    22:00 +5°C° 0 mm 5 mps 737 mmHg 86%
    23:00 +5°C° 0 mm 5 mps 737 mmHg 89%

    28 October, Sunday

    Time Temperature Precipitation Wind Pressure Humidity
    00:00 +5°C° 0 mm 5 mps 737 mmHg 91%
    01:00 +6°C° 0 mm 5 mps 737 mmHg 92%
    02:00 +7°C° 0 mm 5 mps 737 mmHg 94%
    03:00 +7°C° 0.2 mm 5 mps 737 mmHg 94%
    04:00 +8°C° 0.2 mm 5 mps 737 mmHg 94%
    05:00 +8°C° 0.2 mm 5 mps 737 mmHg 94%
    06:00 +8°C° 0 mm 5 mps 737 mmHg 93%
    07:00 +9°C° 0 mm 6 mps 737 mmHg 93%
    08:00 +9°C° 0 mm 6 mps 737 mmHg 92%
    09:00 +9°C° 0 mm 7 mps 737 mmHg 90%
    10:00 +10°C° 0 mm 7 mps 737 mmHg 88%
    11:00 +10°C° 0 mm 7 mps 737 mmHg 86%
    12:00 +10°C° 0 mm 7 mps 737 mmHg 84%
    13:00 +11°C° 0 mm 7 mps 737 mmHg 83%
    14:00 +11°C° 0 mm 7 mps 737 mmHg 81%
    15:00 +11°C° 0 mm 7 mps 737 mmHg 82%
    16:00 +11°C° 0 mm 7 mps 737 mmHg 82%
    17:00 +11°C° 0 mm 6 mps 737 mmHg 83%
    18:00 +11°C° 0 mm 6 mps 736 mmHg 82%
    19:00 +11°C° 0 mm 7 mps 736 mmHg 81%
    20:00 +12°C° 0 mm 7 mps 736 mmHg 80%
    21:00 +11°C° 0 mm 7 mps 736 mmHg 79%
    22:00 +11°C° 0 mm 7 mps 736 mmHg 79%
    23:00 +11°C° 0 mm 7 mps 736 mmHg 78%
    Show more